This is the latest recevied weather packets stored in our database for station/object KE0PRS. If no packets are shown the sender has not sent any weather packets the latest 1 day(s).
| Time | Temp. | Humidity | Pressure | Rain* | Wind** | Luminosity | Snow |
|---|---|---|---|---|---|---|---|
| 1778010117 | 13.89° C | 46% | 1013.9 hPa | 0 mm | 0.89 m/s, 167° | 394 W/m² | - |
| 1778009813 | 13.89° C | 45% | 1013.7 hPa | 0 mm | 0.89 m/s, 144° | 347 W/m² | - |
| 1778009511 | 14.44° C | 45% | 1013.5 hPa | 0 mm | 1.79 m/s, 40° | 451 W/m² | - |
| 1778009209 | 14.44° C | 45% | 1013.6 hPa | 0 mm | 2.68 m/s, 36° | 688 W/m² | - |
| 1778008906 | 14.44° C | 44% | 1013.7 hPa | 0 mm | 0.89 m/s, 32° | 541 W/m² | - |
| 1778008605 | 13.89° C | 46% | 1013.5 hPa | 0 mm | 1.79 m/s, 153° | 567 W/m² | - |
| 1778008303 | 13.89° C | 45% | 1013.5 hPa | 0 mm | 1.79 m/s, 58° | 944 W/m² | - |
| 1778007998 | 13.33° C | 47% | 1013.2 hPa | 0 mm | 1.79 m/s, 47° | 813 W/m² | - |
| 1778007698 | 13.89° C | 47% | 1013.4 hPa | 0 mm | 0.89 m/s, 90° | 440 W/m² | - |
| 1778007395 | 13.89° C | 47% | 1013.5 hPa | 0 mm | 1.79 m/s, 95° | 564 W/m² | - |
| 1778007091 | 13.89° C | 46% | 1013.4 hPa | 0 mm | 3.58 m/s, 337° | 424 W/m² | - |
| 1778006788 | 13.89° C | 47% | 1013.1 hPa | 0 mm | 4.02 m/s, 60° | 425 W/m² | - |
| 1778006485 | 13.89° C | 46% | 1013.1 hPa | 0 mm | 4.02 m/s, 24° | 448 W/m² | - |
| 1778006182 | 13.89° C | 46% | 1013.3 hPa | 0 mm | 1.79 m/s, 107° | 751 W/m² | - |
| 1778005880 | 13.89° C | 47% | 1013.3 hPa | 0 mm | 1.34 m/s, 105° | 680 W/m² | - |
| 1778005575 | 13.89° C | 47% | 1013.3 hPa | 0 mm | 1.34 m/s, 339° | 457 W/m² | - |
| 1778005273 | 13.89° C | 46% | 1013.4 hPa | 0 mm | 4.02 m/s, 12° | 690 W/m² | - |
| 1778004969 | 13.89° C | 45% | 1013.2 hPa | 0 mm | 4.47 m/s, 348° | 521 W/m² | - |
| 1778004667 | 13.89° C | 47% | 1013.4 hPa | 0 mm | 1.79 m/s, 41° | 523 W/m² | - |
| 1778004362 | 14.44° C | 46% | 1013.5 hPa | 0 mm | 2.24 m/s, 13° | 517 W/m² | - |
| 1778004060 | 13.89° C | 48% | 1013.6 hPa | 0 mm | 1.79 m/s, 350° | 744 W/m² | - |
| 1778003755 | 13.89° C | 48% | 1013.9 hPa | 0 mm | 0.89 m/s, 108° | 670 W/m² | - |
| 1778003452 | 13.33° C | 47% | 1013.9 hPa | 0 mm | 2.68 m/s, 35° | 481 W/m² | - |
| 1778003149 | 12.78° C | 50% | 1013.9 hPa | 0 mm | 0.45 m/s, 89° | 514 W/m² | - |
| 1778002845 | 12.78° C | 50% | 1014 hPa | 0 mm | 1.34 m/s, 42° | 427 W/m² | - |
* Rain latest hour (hover to see other rain measurements)
** Current wind speed in m/s (hover to see current wind gust speed)